Terminal Aerodrome Forecast
Issued by NWS

Home | Current Version | Previous Version | Text Only | Print | Product List | Glossary On
Versions: 1 2 3 4 5 6 7 8 9 10 11 12 13
763
FTUS44 KMAF 240522
TAFFST
TAF
KFST 240522Z 2406/2506 15018G28KT P6SM SCT050 BKN250
      TEMPO 2410/2413 VRB20G30KT 5SM TSRA BKN030CB
     FM241300 14013G23KT P6SM FEW035
      TEMPO 2414/2418 VRB25G35KT 1SM +TSRA BKN030CB
      AMD NOT SKED=

USA.gov is the U.S. government's official web portal to all federal, state and local government web resources and services.